This is the latest recevied weather packets stored in our database for station/object KI6SYE. If no packets are shown the sender has not sent any weather packets the latest 10 day(s).
| Time | Temp. | Humidity | Pressure | Rain* | Wind** | Luminosity | Snow |
|---|---|---|---|---|---|---|---|
| 1788404206 | 21.11° C | 78% | 1013.8 hPa | 0 mm | - | 0 W/m² | - |
| 1788403901 | 21.11° C | 78% | 1013.8 hPa | 0 mm | - | 0 W/m² | - |
| 1788403596 | 21.67° C | 78% | 1013.8 hPa | 0 mm | - | 0 W/m² | - |
| 1788403295 | 21.11° C | 77% | 1013.6 hPa | 0 mm | - | 0 W/m² | - |
| 1788402992 | 21.67° C | 77% | 1014 hPa | 0 mm | - | 0 W/m² | - |
| 1788402691 | 21.11° C | 76% | 1013.6 hPa | 0 mm | - | 0 W/m² | - |
| 1788402386 | 21.11° C | 77% | 1013.9 hPa | 0 mm | - | 1 W/m² | - |
| 1788402086 | 21.67° C | 78% | 1013.6 hPa | 0 mm | - | 2 W/m² | - |
| 1788401786 | 21.67° C | 77% | 1013.5 hPa | 0 mm | - | 4 W/m² | - |
| 1788401479 | 21.67° C | 76% | 1013.8 hPa | 0 mm | - | 7 W/m² | - |
| 1788401175 | 21.67° C | 76% | 1013.9 hPa | 0 mm | - | 10 W/m² | - |
| 1788400870 | 21.67° C | 75% | 1013.6 hPa | 0 mm | - | 14 W/m² | - |
| 1788400565 | 21.67° C | 75% | 1013.9 hPa | 0 mm | - | 18 W/m² | - |
| 1788400260 | 21.67° C | 77% | 1013.9 hPa | 0 mm | - | 22 W/m² | - |
| 1788399955 | 21.67° C | 77% | 1013.7 hPa | 0 mm | - | 26 W/m² | - |
| 1788399649 | 22.22° C | 77% | 1013.7 hPa | 0 mm | - | 32 W/m² | - |
| 1788399349 | 22.22° C | 75% | 1013.5 hPa | 0 mm | - | 37 W/m² | - |
| 1788399044 | 22.22° C | 75% | 1013.8 hPa | 0 mm | - | 35 W/m² | - |
| 1788398743 | 21.67° C | 75% | 1013.5 hPa | 0 mm | - | 51 W/m² | - |
| 1788398443 | 22.22° C | 75% | 1013.9 hPa | 0 mm | - | 56 W/m² | - |
| 1788398143 | 22.22° C | 75% | 1013.7 hPa | 0 mm | - | 67 W/m² | - |
| 1788397837 | 22.22° C | 75% | 1013.9 hPa | 0 mm | - | 76 W/m² | - |
| 1788397533 | 22.22° C | 76% | 1013.8 hPa | 0 mm | - | 81 W/m² | - |
| 1788397231 | 22.22° C | 75% | 1013.8 hPa | 0 mm | - | 96 W/m² | - |
| 1788396931 | 22.22° C | 75% | 1013.8 hPa | 0 mm | - | 105 W/m² | - |
* Rain latest hour (hover to see other rain measurements)
** Current wind speed in m/s (hover to see current wind gust speed)